EW7736 Weather Reports


Display with metric or nautical units.
time (UTC)temp
F
wind
direction
speed
MPH
gust
MPH
rain 1hr
in
rain 24hr
in
rain mn
in
humidity
%
barometer
mb
20260508135418 54 38 3.0 10.0 0.00 0.00 0.00 54 1013.5
20260508134347 53 99 2.0 7.0 0.00 0.00 0.00 55 1013.6
20260508133339 52 92 3.0 9.0 0.00 0.00 0.00 57 1013.7
20260508132354 51 46 3.0 9.0 0.00 0.00 0.00 57 1013.7
20260508131406 51 89 2.0 12.0 0.00 0.00 0.00 58 1013.8
20260508124056 49 102 2.0 9.0 0.00 0.00 0.00 60 1013.7
20260508123105 49 51 2.0 9.0 0.00 0.00 0.00 59 1013.7
20260508122101 48 48 1.0 4.0 0.00 0.00 0.00 60 1013.5
20260508121104 47 56 1.0 4.0 0.00 0.00 0.00 62 1013.6
20260508120124 46 46 0.0 3.0 0.00 0.00 0.00 62 1013.6
20260508115125 46 52 1.0 3.0 0.00 0.00 0.00 62 1013.6
20260508114123 46 55 1.0 5.0 0.00 0.00 0.00 62 1013.6
20260508113100 45 57 1.0 5.0 0.00 0.00 0.00 62 1013.4
20260508112054 44 60 0.0 3.0 0.00 0.00 0.00 63 1013.3
20260508111034 44 49 0.0 2.0 0.00 0.00 0.00 63 1013.2
20260508110014 43 49 0.0 1.0 0.00 0.00 0.00 63 1013.2
20260508105009 43 49 0.0 0.0 0.00 0.00 0.00 63 1013.1
20260508104000 43 49 0.0 0.0 0.00 0.00 0.00 63 1013.1
20260508102945 43 49 0.0 0.0 0.00 0.00 0.00 62 1013.1
20260508102009 42 49 0.0 0.0 0.00 0.00 0.00 62 1013.1
20260508100949 42 49 0.0 0.0 0.00 0.00 0.00 61 1012.9
20260508094846 42 49 0.0 0.0 0.00 0.00 0.00 62 1012.9
20260508092712 43 49 0.0 0.0 0.00 0.00 0.00 63 1012.8
20260508091653 43 49 0.0 1.0 0.00 0.00 0.00 63 1012.8
20260508090703 43 49 0.0 2.0 0.00 0.00 0.00 62 1012.8
20260508085645 42 49 0.0 1.0 0.00 0.00 0.00 61 1013.0
20260508084700 42 49 0.0 0.0 0.00 0.00 0.00 61 1012.9
20260508083700 42 49 0.0 0.0 0.00 0.00 0.00 61 1012.8
20260508082650 41 49 0.0 0.0 0.00 0.00 0.00 61 1012.8
20260508081634 41 49 0.0 0.0 0.00 0.00 0.00 62 1012.7
20260508080625 42 49 0.0 0.0 0.00 0.00 0.00 62 1012.9
20260508075608 42 49 0.0 0.0 0.00 0.00 0.00 62 1012.8
20260508074627 42 49 0.0 0.0 0.00 0.00 0.00 62 1012.8
20260508073651 42 49 0.0 0.0 0.00 0.00 0.00 62 1012.8
20260508072704 42 49 0.0 0.0 0.00 0.00 0.00 62 1012.7
20260508071655 42 49 0.0 0.0 0.00 0.00 0.00 62 1012.8
20260508070635 42 49 0.0 0.0 0.00 0.00 0.00 62 1013.0
20260508065610 42 49 0.0 0.0 0.00 0.00 0.00 62 1013.0
20260508064544 43 49 0.0 0.0 0.00 0.00 0.00 62 1013.1
20260508063512 43 49 0.0 0.0 0.00 0.00 0.00 62 1013.1
20260508062530 42 103 0.0 0.0 0.00 0.00 0.00 62 1013.2
20260508061539 42 103 0.0 0.0 0.00 0.00 0.00 63 1013.2
20260508060509 43 103 0.0 0.0 0.00 0.00 0.00 63 1013.3
20260508055524 43 103 0.0 0.0 0.00 0.00 0.00 62 1013.3
20260508054457 43 103 0.0 0.0 0.00 0.00 0.00 62 1013.4
20260508053501 44 103 0.0 0.0 0.00 0.00 0.00 62 1013.5
20260508052433 44 103 0.0 0.0 0.00 0.00 0.00 62 1013.6
20260508051453 43 103 0.0 0.0 0.00 0.00 0.00 63 1013.6
20260508050505 42 103 0.0 0.0 0.00 0.00 0.00 63 1013.6
20260508045506 43 103 0.0 0.0 0.00 0.00 0.00 63 1013.5
20260508043324 44 103 0.0 0.0 0.00 0.00 0.00 62 1013.5
20260508042308 45 103 0.0 0.0 0.00 0.00 0.00 60 1013.5
20260508041303 47 103 0.0 0.0 0.00 0.00 0.00 59 1013.4
20260508040234 47 103 0.0 0.0 0.00 0.00 0.00 58 1013.3
20260508035256 47 103 0.0 0.0 0.00 0.00 0.00 59 1013.3
20260508031908 48 102 0.0 2.0 0.00 0.00 0.00 56 1013.3
20260508030858 48 107 0.0 1.0 0.00 0.00 0.00 57 1013.2
20260508025901 49 107 0.0 1.0 0.00 0.00 0.00 58 1013.2
20260508024907 49 107 0.0 1.0 0.00 0.00 0.00 57 1013.1
20260508023855 49 107 0.0 2.0 0.00 0.00 0.00 56 1013.0
20260508022844 50 96 0.0 2.0 0.00 0.00 0.00 55 1013.0
20260508021844 50 112 0.0 0.0 0.00 0.00 0.00 55 1012.8
20260508020852 50 115 0.0 2.0 0.00 0.00 0.00 54 1012.8
20260508015837 50 115 0.0 2.0 0.00 0.00 0.00 54 1012.7
20260508014854 51 131 0.0 2.0 0.00 0.00 0.00 54 1012.5
20260508013850 51 115 0.0 2.0 0.00 0.00 0.00 54 1012.5
20260508012907 52 108 0.0 4.0 0.00 0.00 0.00 53 1012.3
20260508011849 52 113 1.0 7.0 0.00 0.00 0.00 52 1012.2
20260508010841 53 131 1.0 7.0 0.00 0.00 0.00 51 1012.0
20260508005830 53 109 0.0 5.0 0.00 0.00 0.00 50 1011.9
20260508004855 53 131 2.0 5.0 0.00 0.00 0.00 49 1011.8
20260508003902 54 151 2.0 6.0 0.00 0.00 0.00 48 1011.6
20260508002906 55 91 1.0 6.0 0.00 0.00 0.00 47 1011.4
20260508001907 55 113 2.0 5.0 0.00 0.00 0.00 46 1011.2
20260508000840 56 123 2.0 8.0 0.00 0.00 0.00 45 1011.1
20260507235844 56 96 3.0 8.0 0.00 0.00 0.00 44 1010.9
20260507234811 56 120 2.0 7.0 0.00 0.00 0.00 45 1010.7
20260507233750 56 106 2.0 8.0 0.00 0.00 0.00 44 1010.6
20260507232805 57 122 3.0 8.0 0.00 0.00 0.00 42 1010.5
20260507231824 57 107 3.0 8.0 0.00 0.00 0.00 42 1010.5
20260507230820 57 101 2.0 8.0 0.00 0.00 0.00 42 1010.3
20260507225842 58 112 2.0 6.0 0.00 0.00 0.00 42 1010.3
20260507224854 58 118 3.0 9.0 0.00 0.00 0.00 43 1010.3
20260507223913 58 94 4.0 10.0 0.00 0.00 0.00 41 1010.2
20260507222935 58 101 5.0 11.0 0.00 0.00 0.00 40 1010.2
20260507221920 60 93 4.0 12.0 0.00 0.00 0.00 42 1009.9
20260507220858 59 98 4.0 12.0 0.00 0.00 0.00 41 1009.9
20260507215832 59 108 3.0 9.0 0.00 0.00 0.00 40 1009.8
20260507214821 60 105 4.0 9.0 0.00 0.00 0.00 40 1009.7
20260507213759 60 112 2.0 8.0 0.00 0.00 0.00 42 1009.7
20260507212749 58 91 4.0 17.0 0.00 0.00 0.00 40 1009.6
20260507211745 59 112 6.0 17.0 0.00 0.00 0.00 40 1009.8
20260507205616 59 112 2.0 7.0 0.00 0.00 0.00 40 1009.6
20260507204613 59 101 2.0 7.0 0.00 0.00 0.00 45 1009.5
20260507203634 59 122 2.0 7.0 0.00 0.00 0.00 41 1009.5
20260507202643 59 122 3.0 13.0 0.00 0.00 0.00 43 1009.5
20260507201702 59 105 5.0 13.0 0.00 0.00 0.00 41 1009.7
20260507200707 60 105 5.0 11.0 0.00 0.00 0.00 42 1009.6
20260507195646 60 100 4.0 10.0 0.00 0.00 0.00 44 1009.8
20260507193542 59 107 5.0 12.0 0.00 0.00 0.00 44 1010.1
20260507192607 59 97 4.0 11.0 0.00 0.00 0.00 42 1010.1
20260507191557 58 120 3.0 9.0 0.00 0.00 0.00 46 1010.1
20260507185346 58 60 4.0 12.0 0.00 0.00 0.00 47 1010.2
20260507184340 59 111 3.0 10.0 0.00 0.00 0.00 49 1010.3
20260507183320 59 103 2.0 8.0 0.00 0.00 0.00 46 1010.2
20260507182257 59 109 1.0 6.0 0.00 0.00 0.00 51 1010.4
20260507181242 58 115 3.0 6.0 0.00 0.00 0.00 49 1010.4
20260507180219 57 92 1.0 6.0 0.00 0.00 0.00 50 1010.5
20260507175240 57 108 3.0 8.0 0.00 0.00 0.00 49 1010.5
20260507174238 57 105 3.0 11.0 0.00 0.00 0.00 47 1010.6
20260507173253 58 130 5.0 12.0 0.00 0.00 0.00 46 1010.8
20260507172253 58 94 2.0 12.0 0.00 0.00 0.00 50 1010.9
20260507171259 57 105 3.0 12.0 0.00 0.00 0.00 47 1011.1
20260507170317 57 121 2.0 7.0 0.00 0.00 0.00 48 1011.2
20260507165253 57 111 2.0 10.0 0.00 0.00 0.00 48 1011.2
20260507161910 57 111 4.0 9.0 0.00 0.00 0.00 45 1011.5
20260507155758 57 110 2.0 6.0 0.00 0.00 0.00 47 1011.6
20260507154735 57 102 2.0 8.0 0.00 0.00 0.00 47 1011.8
20260507153715 56 41 3.0 8.0 0.00 0.00 0.00 51 1011.8
20260507152737 55 101 1.0 8.0 0.00 0.00 0.00 49 1011.9
20260507151736 54 112 2.0 6.0 0.00 0.00 0.00 51 1012.0
20260507150757 55 106 0.0 5.0 0.00 0.00 0.00 51 1012.1
20260507145803 56 308 2.0 7.0 0.00 0.01 0.00 52 1012.2
20260507144802 56 110 1.0 5.0 0.00 0.01 0.00 51 1012.3
20260507143750 55 130 0.0 0.0 0.00 0.01 0.00 55 1012.4
20260507142808 54 107 3.0 8.0 0.00 0.01 0.00 52 1012.5
20260507141823 54 50 1.0 5.0 0.00 0.01 0.00 54 1012.7
20260507140827 54 45 1.0 5.0 0.00 0.01 0.00 53 1012.9
20260507135756 54 58 0.0 5.0 0.00 0.03 0.00 54 1013.0